Location: Sun City Center
(27.6996°N, 82.3528°W)
Time: 08:58:56
(UTC-04:00)

Cosmos 2084 Rocket - Visible Passes

Search period start: 26 May 2017 00:00
Search period end: 05 June 2017 00:00
Orbit: 500 x 684 km, 62.8° (Epoch: 25 May)

Date Brightness Start Highest point End Pass type
(mag) Time Alt. Az. Time Alt. Az. Time Alt. Az.
01 Jun 6.1 23:36:08 15° N 23:36:08 15° N 23:37:01 10° N visible
02 Jun 5.8 22:06:01 11° NE 22:06:01 11° NE 22:06:07 10° NE visible
02 Jun 6.0 23:42:24 17° NW 23:42:24 17° NW 23:44:42 10° NNW visible
03 Jun 3.3 22:10:55 63° ESE 22:10:55 63° ESE 22:14:58 10° NE visible
04 Jun 3.8 22:15:07 10° SW 22:19:23 62° WNW 22:23:26 10° NNE visible
